Time,TemperatureF,DewpointF,PressureIn,WindDirection,WindDirectionDegrees,WindSpeedMPH,WindSpeedGustMPH,Humidity,HourlyPrecipIn,Conditions,Clouds,dailyrainin,SoftwareType,DateUTC
2013-11-24 00:00:00,60.4,60.4,29.65,SSW,210,4.4,18.3,100,0.00,,,0.00,Meteorologica,2013-11-24 05:00:00,
2013-11-24 00:01:00,34.4,22.8,30.40,North,359,4.6,12.6,62,0.00,,,0.00,Meteorologica,2013-11-24 05:01:00,
2013-11-24 00:06:00,34.2,22.8,30.40,ESE,122,5.2,11.0,62,0.00,,,0.00,Meteorologica,2013-11-24 05:06:00,
2013-11-24 00:11:00,34.0,22.8,30.40,NNE,16,8.6,14.1,63,0.00,,,0.00,Meteorologica,2013-11-24 05:11:00,
2013-11-24 00:16:00,33.9,23.1,30.40,NE,44,5.5,14.1,64,0.00,,,0.00,Meteorologica,2013-11-24 05:16:00,
2013-11-24 00:21:00,33.8,23.0,30.40,NE,43,3.2,11.1,64,0.00,,,0.00,Meteorologica,2013-11-24 05:21:00,
2013-11-24 00:26:00,33.4,22.7,30.40,NE,34,6.6,11.8,64,0.00,,,0.00,Meteorologica,2013-11-24 05:26:00,
2013-11-24 00:31:00,33.2,22.7,30.40,North,350,4.1,11.2,64,0.00,,,0.00,Meteorologica,2013-11-24 05:31:00,
2013-11-24 01:00:00,32.5,22.5,30.40,North,359,6.3,11.0,66,0.00,,,0.00,Meteorologica,2013-11-24 06:00:00,
2013-11-24 01:05:00,32.5,22.4,30.40,North,3,7.4,13.2,65,0.00,,,0.00,Meteorologica,2013-11-24 06:05:00,
2013-11-24 01:10:00,32.2,22.3,30.40,NNE,26,5.6,11.7,66,0.00,,,0.00,Meteorologica,2013-11-24 06:10:00,
2013-11-24 01:15:00,32.4,22.6,30.40,NE,39,4.4,12.3,66,0.00,,,0.00,Meteorologica,2013-11-24 06:15:00,
2013-11-24 01:20:00,32.2,22.5,30.40,NNE,28,7.6,10.8,66,0.00,,,0.00,Meteorologica,2013-11-24 06:20:00,
2013-11-24 01:25:00,32.1,22.6,30.40,NNE,29,0.0,11.0,67,0.00,,,0.00,Meteorologica,2013-11-24 06:25:00,
2013-11-24 01:30:00,32.0,22.7,30.40,North,9,5.5,9.7,68,0.00,,,0.00,Meteorologica,2013-11-24 06:30:00,
2013-11-24 01:35:00,32.0,22.4,30.40,NNE,21,3.2,9.8,67,0.00,,,0.00,Meteorologica,2013-11-24 06:35:00,
2013-11-24 01:40:00,31.7,22.2,30.40,NNE,23,5.0,9.1,67,0.00,,,0.00,Meteorologica,2013-11-24 06:40:00,
2013-11-24 01:45:00,31.6,21.6,30.40,North,7,6.3,11.4,66,0.00,,,0.00,Meteorologica,2013-11-24 06:45:00,
2013-11-24 01:50:00,31.5,21.5,30.40,NE,44,7.6,10.8,65,0.00,,,0.00,Meteorologica,2013-11-24 06:50:00,
2013-11-24 01:55:00,31.5,21.5,30.41,East,101,4.6,14.7,65,0.00,,,0.00,Meteorologica,2013-11-24 06:55:00,
2013-11-24 02:00:00,31.4,21.2,30.41,NNE,13,6.7,14.4,65,0.00,,,0.00,Meteorologica,2013-11-24 07:00:00,
2013-11-24 02:05:00,31.3,21.3,30.41,North,6,7.9,10.7,65,0.00,,,0.00,Meteorologica,2013-11-24 07:05:00,
2013-11-24 02:10:00,31.2,21.8,30.41,North,4,6.4,10.8,66,0.00,,,0.00,Meteorologica,2013-11-24 07:10:00,
2013-11-24 02:15:00,31.0,21.0,30.41,NE,37,6.3,10.8,65,0.00,,,0.00,Meteorologica,2013-11-24 07:15:00,
2013-11-24 02:20:00,30.9,20.8,30.42,NNE,28,6.3,10.0,65,0.00,,,0.00,Meteorologica,2013-11-24 07:20:00,
2013-11-24 02:25:00,30.9,20.7,30.42,NNE,24,7.4,9.7,65,0.00,,,0.00,Meteorologica,2013-11-24 07:25:00,
2013-11-24 02:30:00,30.8,20.7,30.42,NE,48,5.2,10.9,65,0.00,,,0.00,Meteorologica,2013-11-24 07:30:00,
2013-11-24 02:35:00,30.7,20.3,30.42,NNE,16,8.5,13.7,64,0.00,,,0.00,Meteorologica,2013-11-24 07:35:00,
2013-11-24 02:40:00,30.6,20.0,30.42,NE,55,6.8,13.1,64,0.00,,,0.00,Meteorologica,2013-11-24 07:40:00,
2013-11-24 02:45:00,30.5,20.2,30.42,SE,136,5.0,12.3,64,0.00,,,0.00,Meteorologica,2013-11-24 07:45:00,
2013-11-24 02:50:00,30.4,20.0,30.42,NNE,14,8.0,15.6,64,0.00,,,0.00,Meteorologica,2013-11-24 07:50:00,
2013-11-24 02:55:00,30.3,19.9,30.43,NNE,17,5.4,16.8,64,0.00,,,0.00,Meteorologica,2013-11-24 07:55:00,
2013-11-24 03:00:00,30.2,20.0,30.43,NNE,26,3.3,11.7,65,0.00,,,0.00,Meteorologica,2013-11-24 08:00:00,
2013-11-24 03:05:00,30.3,20.2,30.43,NNE,29,4.6,10.0,65,0.00,,,0.00,Meteorologica,2013-11-24 08:05:00,
2013-11-24 03:10:00,30.2,20.0,30.43,North,355,5.6,9.3,65,0.00,,,0.00,Meteorologica,2013-11-24 08:10:00,
2013-11-24 03:15:00,30.0,19.8,30.43,ENE,63,5.8,15.8,65,0.00,,,0.00,Meteorologica,2013-11-24 08:15:00,
2013-11-24 03:20:00,29.8,19.7,30.44,North,11,6.9,13.1,65,0.00,,,0.00,Meteorologica,2013-11-24 08:20:00,
2013-11-24 03:25:00,29.9,20.1,30.44,North,7,1.1,12.3,66,0.00,,,0.00,Meteorologica,2013-11-24 08:25:00,
2013-11-24 03:30:00,29.8,20.3,30.44,NNW,344,5.7,8.4,67,0.00,,,0.00,Meteorologica,2013-11-24 08:30:00,
2013-11-24 03:35:00,29.6,20.2,30.44,SW,231,2.0,9.6,67,0.00,,,0.00,Meteorologica,2013-11-24 08:35:00,
2013-11-24 03:40:00,29.5,20.0,30.44,NNE,26,5.3,8.6,67,0.00,,,0.00,Meteorologica,2013-11-24 08:40:00,
2013-11-24 03:45:00,29.3,19.4,30.44,NNE,15,6.2,10.3,66,0.00,,,0.00,Meteorologica,2013-11-24 08:45:00,
2013-11-24 03:50:00,29.2,19.5,30.44,NNE,26,5.1,10.8,66,0.00,,,0.00,Meteorologica,2013-11-24 08:50:00,
2013-11-24 03:55:00,29.2,19.7,30.44,NNE,18,5.6,9.4,67,0.00,,,0.00,Meteorologica,2013-11-24 08:55:00,
2013-11-24 04:00:00,29.0,19.5,30.44,NNE,31,3.7,9.4,67,0.00,,,0.00,Meteorologica,2013-11-24 09:00:00,
2013-11-24 04:05:00,28.9,19.4,30.44,NNE,12,1.9,9.4,67,0.00,,,0.00,Meteorologica,2013-11-24 09:05:00,
2013-11-24 04:10:00,28.7,18.7,30.45,SE,130,4.6,4.6,65,0.00,,,0.00,Meteorologica,2013-11-24 09:10:00,
2013-11-24 04:15:00,28.4,18.4,30.45,East,95,0.0,8.2,65,0.00,,,0.00,Meteorologica,2013-11-24 09:15:00,
2013-11-24 04:20:00,28.2,17.9,30.45,North,9,5.3,5.3,64,0.00,,,0.00,Meteorologica,2013-11-24 09:20:00,
2013-11-24 04:25:00,28.1,17.6,30.45,NNE,22,5.9,9.8,64,0.00,,,0.00,Meteorologica,2013-11-24 09:25:00,
2013-11-24 04:30:00,28.0,17.6,30.45,NNE,13,3.9,12.3,64,0.00,,,0.00,Meteorologica,2013-11-24 09:30:00,
2013-11-24 04:35:00,27.7,17.3,30.45,NNE,33,7.2,11.2,64,0.00,,,0.00,Meteorologica,2013-11-24 09:35:00,
2013-11-24 04:40:00,27.7,17.2,30.45,NNE,32,3.8,10.0,64,0.00,,,0.00,Meteorologica,2013-11-24 09:40:00,
2013-11-24 04:45:00,27.5,16.7,30.46,NE,37,5.7,9.9,63,0.00,,,0.00,Meteorologica,2013-11-24 09:45:00,
2013-11-24 04:50:00,27.4,17.1,30.46,NE,49,3.5,10.5,64,0.00,,,0.00,Meteorologica,2013-11-24 09:50:00,
2013-11-24 04:55:00,27.3,16.9,30.47,NNE,26,0.3,7.8,64,0.00,,,0.00,Meteorologica,2013-11-24 09:55:00,
2013-11-24 05:00:00,27.1,16.9,30.47,NNE,29,3.6,8.2,64,0.00,,,0.00,Meteorologica,2013-11-24 10:00:00,
2013-11-24 05:05:00,27.1,17.1,30.47,NE,34,3.9,7.4,65,0.00,,,0.00,Meteorologica,2013-11-24 10:05:00,
2013-11-24 05:10:00,27.0,17.0,30.47,ENE,73,2.8,7.4,65,0.00,,,0.00,Meteorologica,2013-11-24 10:10:00,
2013-11-24 05:15:00,26.9,17.2,30.47,North,351,2.3,9.0,66,0.00,,,0.00,Meteorologica,2013-11-24 10:15:00,
2013-11-24 05:20:00,26.9,17.0,30.47,North,9,6.9,7.9,65,0.00,,,0.00,Meteorologica,2013-11-24 10:20:00,
2013-11-24 05:25:00,26.7,17.1,30.47,North,359,2.6,10.0,66,0.00,,,0.00,Meteorologica,2013-11-24 10:25:00,
2013-11-24 05:30:00,26.7,17.1,30.47,NNE,20,3.4,7.4,66,0.00,,,0.00,Meteorologica,2013-11-24 10:30:00,
2013-11-24 05:35:00,26.6,17.0,30.47,North,351,4.5,7.2,66,0.00,,,0.00,Meteorologica,2013-11-24 10:35:00,
2013-11-24 05:40:00,26.6,17.0,30.48,NE,40,5.5,9.0,66,0.00,,,0.00,Meteorologica,2013-11-24 10:40:00,
2013-11-24 05:45:00,26.5,16.8,30.48,North,359,0.6,9.6,66,0.00,,,0.00,Meteorologica,2013-11-24 10:45:00,
2013-11-24 05:50:00,26.4,16.5,30.48,NNW,328,3.8,8.7,65,0.00,,,0.00,Meteorologica,2013-11-24 10:50:00,
2013-11-24 05:55:00,26.2,16.6,30.48,NNE,25,5.3,9.4,66,0.00,,,0.00,Meteorologica,2013-11-24 10:55:00,
2013-11-24 06:00:00,26.2,16.5,30.48,NNE,16,1.6,9.7,66,0.00,,,0.00,Meteorologica,2013-11-24 11:00:00,
2013-11-24 06:05:00,26.1,16.4,30.48,North,5,4.9,7.8,66,0.00,,,0.00,Meteorologica,2013-11-24 11:05:00,
2013-11-24 06:10:00,26.0,16.4,30.48,NE,48,5.5,10.2,66,0.00,,,0.00,Meteorologica,2013-11-24 11:10:00,
2013-11-24 06:15:00,25.9,16.6,30.49,NNE,15,3.5,9.9,67,0.00,,,0.00,Meteorologica,2013-11-24 11:15:00,
2013-11-24 06:20:00,25.9,16.6,30.49,NNE,20,0.5,7.3,67,0.00,,,0.00,Meteorologica,2013-11-24 11:20:00,
2013-11-24 06:25:00,25.9,16.6,30.50,North,359,4.5,5.3,67,0.00,,,0.00,Meteorologica,2013-11-24 11:25:00,
2013-11-24 06:30:00,25.7,16.3,30.50,NNE,16,6.3,9.7,67,0.00,,,0.00,Meteorologica,2013-11-24 11:30:00,
2013-11-24 06:35:00,25.4,16.0,30.50,North,354,7.0,13.0,66,0.00,,,0.00,Meteorologica,2013-11-24 11:35:00,
2013-11-24 06:40:00,25.3,15.9,30.50,NNE,17,7.3,15.5,67,0.00,,,0.00,Meteorologica,2013-11-24 11:40:00,
2013-11-24 06:45:00,25.3,16.3,30.50,NNE,33,4.7,12.2,68,0.00,,,0.00,Meteorologica,2013-11-24 11:45:00,
2013-11-24 06:50:00,25.3,16.2,30.50,North,9,5.2,8.6,67,0.00,,,0.00,Meteorologica,2013-11-24 11:50:00,
2013-11-24 06:55:00,25.3,16.4,30.51,NE,46,2.4,11.2,68,0.00,,,0.00,Meteorologica,2013-11-24 11:55:00,
2013-11-24 07:00:00,25.2,16.4,30.51,NE,36,3.3,9.7,68,0.00,,,0.00,Meteorologica,2013-11-24 12:00:00,
2013-11-24 07:05:00,25.2,16.5,30.51,North,357,4.0,8.6,69,0.00,,,0.00,Meteorologica,2013-11-24 12:05:00,
2013-11-24 07:10:00,25.1,16.5,30.51,NE,45,2.2,7.9,69,0.00,,,0.00,Meteorologica,2013-11-24 12:10:00,
2013-11-24 07:15:00,25.0,16.5,30.51,NNE,15,1.8,11.0,69,0.00,,,0.00,Meteorologica,2013-11-24 12:15:00,
2013-11-24 07:20:00,25.1,16.7,30.51,ENE,57,4.4,9.2,70,0.00,,,0.00,Meteorologica,2013-11-24 12:20:00,
2013-11-24 07:25:00,24.9,16.5,30.51,North,4,0.9,7.6,69,0.00,,,0.00,Meteorologica,2013-11-24 12:25:00,
2013-11-24 07:30:00,24.9,16.4,30.52,NNW,339,6.1,8.2,69,0.00,,,0.00,Meteorologica,2013-11-24 12:30:00,
2013-11-24 07:35:00,24.8,15.6,30.52,NNE,26,9.0,12.2,67,0.00,,,0.00,Meteorologica,2013-11-24 12:35:00,
2013-11-24 07:40:00,25.0,16.0,30.53,NNE,32,3.3,12.6,68,0.00,,,0.00,Meteorologica,2013-11-24 12:40:00,
2013-11-24 07:45:00,24.9,16.0,30.53,NNE,22,3.3,10.5,68,0.00,,,0.00,Meteorologica,2013-11-24 12:45:00,
2013-11-24 07:50:00,24.9,16.2,30.53,NNW,341,5.5,6.6,68,0.00,,,0.00,Meteorologica,2013-11-24 12:50:00,
2013-11-24 07:55:00,24.9,16.2,30.53,NNE,25,1.8,11.1,68,0.00,,,0.00,Meteorologica,2013-11-24 12:55:00,
2013-11-24 08:00:00,25.0,16.4,30.53,North,4,4.2,8.7,69,0.00,,,0.00,Meteorologica,2013-11-24 13:00:00,
2013-11-24 08:05:00,24.9,16.2,30.53,NNE,14,6.3,8.7,68,0.00,,,0.00,Meteorologica,2013-11-24 13:05:00,
2013-11-24 08:10:00,24.9,16.4,30.54,NNE,33,4.2,9.4,69,0.00,,,0.00,Meteorologica,2013-11-24 13:10:00,
2013-11-24 08:15:00,25.2,16.8,30.54,NNE,20,2.6,8.5,69,0.00,,,0.00,Meteorologica,2013-11-24 13:15:00,
2013-11-24 08:20:00,25.1,16.5,30.54,North,350,3.3,8.5,69,0.00,,,0.00,Meteorologica,2013-11-24 13:20:00,
2013-11-24 08:25:00,25.2,16.6,30.54,NNE,27,4.0,8.8,69,0.00,,,0.00,Meteorologica,2013-11-24 13:25:00,
2013-11-24 08:30:00,25.4,16.8,30.55,NE,38,4.5,8.7,69,0.00,,,0.00,Meteorologica,2013-11-24 13:30:00,
2013-11-24 08:35:00,25.4,16.5,30.55,NNE,27,3.5,13.1,68,0.00,,,0.00,Meteorologica,2013-11-24 13:35:00,
2013-11-24 08:40:00,25.4,16.4,30.55,NNE,26,5.1,8.5,68,0.00,,,0.00,Meteorologica,2013-11-24 13:40:00,
2013-11-24 08:45:00,25.7,16.9,30.55,North,350,6.1,9.2,68,0.00,,,0.00,Meteorologica,2013-11-24 13:45:00,
2013-11-24 08:50:00,25.6,16.4,30.55,NE,52,7.3,11.2,67,0.00,,,0.00,Meteorologica,2013-11-24 13:50:00,
2013-11-24 08:55:00,25.5,16.1,30.55,NNE,30,8.4,12.7,66,0.00,,,0.00,Meteorologica,2013-11-24 13:55:00,
2013-11-24 09:00:00,25.7,16.4,30.55,NNE,13,5.0,13.6,67,0.00,,,0.00,Meteorologica,2013-11-24 14:00:00,
2013-11-24 09:05:00,25.8,16.5,30.55,NNW,344,6.6,13.2,67,0.00,,,0.00,Meteorologica,2013-11-24 14:05:00,
2013-11-24 09:10:00,25.9,16.5,30.55,NNE,16,4.4,13.0,66,0.00,,,0.00,Meteorologica,2013-11-24 14:10:00,
2013-11-24 09:15:00,26.1,16.6,30.55,NNE,12,4.5,8.4,66,0.00,,,0.00,Meteorologica,2013-11-24 14:15:00,
2013-11-24 09:20:00,26.2,16.5,30.55,NE,45,3.8,10.0,66,0.00,,,0.00,Meteorologica,2013-11-24 14:20:00,
2013-11-24 09:25:00,26.3,16.4,30.55,NNE,13,5.7,11.2,65,0.00,,,0.00,Meteorologica,2013-11-24 14:25:00,
2013-11-24 09:30:00,26.4,16.2,30.55,NE,41,5.8,10.8,64,0.00,,,0.00,Meteorologica,2013-11-24 14:30:00,
2013-11-24 09:35:00,26.5,16.6,30.56,NE,47,5.3,16.9,65,0.00,,,0.00,Meteorologica,2013-11-24 14:35:00,
2013-11-24 09:40:00,26.8,16.0,30.55,NNE,29,8.0,10.0,63,0.00,,,0.00,Meteorologica,2013-11-24 14:40:00,
2013-11-24 09:45:00,26.8,15.9,30.55,North,3,7.4,16.4,62,0.00,,,0.00,Meteorologica,2013-11-24 14:45:00,
2013-11-24 09:50:00,27.1,16.2,30.55,NNE,29,4.6,13.4,62,0.00,,,0.00,Meteorologica,2013-11-24 14:50:00,
2013-11-24 09:55:00,27.3,16.3,30.56,NNE,16,3.7,12.5,62,0.00,,,0.00,Meteorologica,2013-11-24 14:55:00,
2013-11-24 10:00:00,27.8,16.9,30.55,NE,53,0.8,10.9,62,0.00,,,0.00,Meteorologica,2013-11-24 15:00:00,
2013-11-24 10:05:00,28.0,16.4,30.55,NNE,25,6.3,6.9,61,0.00,,,0.00,Meteorologica,2013-11-24 15:05:00,
2013-11-24 10:10:00,28.0,16.7,30.55,NNE,22,2.5,8.8,62,0.00,,,0.00,Meteorologica,2013-11-24 15:10:00,
2013-11-24 10:15:00,28.2,16.7,30.55,North,7,4.7,12.5,61,0.00,,,0.00,Meteorologica,2013-11-24 15:15:00,
2013-11-24 10:20:00,28.5,17.4,30.56,NNE,12,2.1,11.6,62,0.00,,,0.00,Meteorologica,2013-11-24 15:20:00,
2013-11-24 10:25:00,28.7,17.3,30.55,NE,50,3.4,7.1,61,0.00,,,0.00,Meteorologica,2013-11-24 15:25:00,
2013-11-24 10:30:00,28.9,17.2,30.55,NNE,17,6.3,8.9,61,0.00,,,0.00,Meteorologica,2013-11-24 15:30:00,
2013-11-24 10:35:00,29.1,17.5,30.55,North,10,4.4,8.3,61,0.00,,,0.00,Meteorologica,2013-11-24 15:35:00,
2013-11-24 10:40:00,29.4,17.8,30.55,NE,51,3.8,10.8,61,0.00,,,0.00,Meteorologica,2013-11-24 15:40:00,
2013-11-24 10:45:00,29.8,18.0,30.55,NNE,13,6.1,7.8,60,0.00,,,0.00,Meteorologica,2013-11-24 15:45:00,
2013-11-24 10:50:00,29.9,17.4,30.55,NE,43,6.7,7.9,59,0.00,,,0.00,Meteorologica,2013-11-24 15:50:00,
2013-11-24 10:55:00,30.0,17.6,30.55,NE,50,1.9,10.7,59,0.00,,,0.00,Meteorologica,2013-11-24 15:55:00,
2013-11-24 11:00:00,30.1,17.6,30.55,North,7,4.0,9.2,58,0.00,,,0.00,Meteorologica,2013-11-24 16:00:00,
2013-11-24 11:05:00,30.3,17.8,30.55,ENE,57,1.3,8.6,59,0.00,,,0.00,Meteorologica,2013-11-24 16:05:00,
2013-11-24 11:10:00,30.5,17.6,30.55,NNE,12,4.9,8.4,58,0.00,,,0.00,Meteorologica,2013-11-24 16:10:00,
2013-11-24 11:15:00,30.5,17.0,30.54,NNE,19,3.5,9.6,56,0.00,,,0.00,Meteorologica,2013-11-24 16:15:00,
2013-11-24 11:20:00,30.7,17.8,30.54,NNE,19,2.4,10.4,58,0.00,,,0.00,Meteorologica,2013-11-24 16:20:00,
2013-11-24 11:25:00,30.9,16.8,30.54,NNE,31,5.6,10.2,55,0.00,,,0.00,Meteorologica,2013-11-24 16:25:00,
2013-11-24 11:30:00,31.1,17.7,30.54,NNE,16,0.0,10.9,57,0.00,,,0.00,Meteorologica,2013-11-24 16:30:00,
2013-11-24 11:35:00,31.5,17.7,30.54,NNE,17,3.3,7.1,56,0.00,,,0.00,Meteorologica,2013-11-24 16:35:00,
2013-11-24 11:40:00,31.5,17.1,30.54,ENE,66,5.8,7.6,54,0.00,,,0.00,Meteorologica,2013-11-24 16:40:00,
2013-11-24 11:45:00,31.6,17.1,30.53,NNE,26,0.4,9.8,54,0.00,,,0.00,Meteorologica,2013-11-24 16:45:00,
2013-11-24 11:50:00,31.9,17.6,30.53,NNE,32,2.1,9.6,55,0.00,,,0.00,Meteorologica,2013-11-24 16:50:00,
2013-11-24 11:55:00,32.1,17.8,30.53,North,356,4.4,5.9,55,0.00,,,0.00,Meteorologica,2013-11-24 16:55:00,
2013-11-24 12:00:00,32.5,17.9,30.53,NE,47,3.1,10.4,54,0.00,,,0.00,Meteorologica,2013-11-24 17:00:00,
2013-11-24 12:05:00,32.7,18.2,30.53,NE,35,5.2,8.1,54,0.00,,,0.00,Meteorologica,2013-11-24 17:05:00,
2013-11-24 12:10:00,32.7,17.6,30.53,NE,49,5.3,8.4,53,0.00,,,0.00,Meteorologica,2013-11-24 17:10:00,
2013-11-24 12:15:00,32.8,17.5,30.52,NNE,13,2.4,8.7,52,0.00,,,0.00,Meteorologica,2013-11-24 17:15:00,
2013-11-24 12:20:00,33.0,18.0,30.52,NNW,343,1.3,7.4,53,0.00,,,0.00,Meteorologica,2013-11-24 17:20:00,
2013-11-24 12:25:00,33.0,16.4,30.51,North,2,4.7,7.3,50,0.00,,,0.00,Meteorologica,2013-11-24 17:25:00,
2013-11-24 12:30:00,33.1,16.8,30.51,NE,55,5.3,10.0,50,0.00,,,0.00,Meteorologica,2013-11-24 17:30:00,
2013-11-24 12:35:00,33.2,16.8,30.51,North,357,7.2,9.2,50,0.00,,,0.00,Meteorologica,2013-11-24 17:35:00,
2013-11-24 12:40:00,33.7,16.3,30.51,NNE,29,4.1,10.0,48,0.00,,,0.00,Meteorologica,2013-11-24 17:40:00,
2013-11-24 12:45:00,33.6,16.4,30.50,North,6,2.5,9.9,49,0.00,,,0.00,Meteorologica,2013-11-24 17:45:00,
2013-11-24 12:50:00,33.8,16.3,30.50,SE,126,7.2,9.7,48,0.00,,,0.00,Meteorologica,2013-11-24 17:50:00,
2013-11-24 12:55:00,34.1,16.2,30.50,NE,38,6.9,11.5,47,0.00,,,0.00,Meteorologica,2013-11-24 17:55:00,
2013-11-24 13:01:00,34.2,16.6,30.49,NNE,19,4.0,11.7,48,0.00,,,0.00,Meteorologica,2013-11-24 18:01:00,
2013-11-24 13:06:00,34.4,16.5,30.50,NNE,25,5.6,9.9,47,0.00,,,0.00,Meteorologica,2013-11-24 18:06:00,
2013-11-24 13:11:00,34.6,16.2,30.49,NE,43,3.3,7.7,46,0.00,,,0.00,Meteorologica,2013-11-24 18:11:00,
2013-11-24 13:16:00,34.6,16.3,30.49,North,355,0.9,11.7,47,0.00,,,0.00,Meteorologica,2013-11-24 18:16:00,
2013-11-24 13:21:00,34.6,14.9,30.49,NNE,29,1.7,9.7,44,0.00,,,0.00,Meteorologica,2013-11-24 18:21:00,
2013-11-24 13:26:00,34.9,14.7,30.48,NE,34,4.1,11.6,43,0.00,,,0.00,Meteorologica,2013-11-24 18:26:00,
2013-11-24 13:31:00,35.1,16.0,30.48,North,10,4.7,8.4,45,0.00,,,0.00,Meteorologica,2013-11-24 18:31:00,
2013-11-24 13:36:00,35.3,15.9,30.48,North,359,3.5,9.4,44,0.00,,,0.00,Meteorologica,2013-11-24 18:36:00,
2013-11-24 13:41:00,35.4,15.8,30.48,NNE,29,2.6,10.7,44,0.00,,,0.00,Meteorologica,2013-11-24 18:41:00,
2013-11-24 13:46:00,35.6,15.6,30.47,NE,42,5.7,8.7,43,0.00,,,0.00,Meteorologica,2013-11-24 18:46:00,
2013-11-24 13:51:00,35.8,15.1,30.47,North,359,2.8,10.0,42,0.00,,,0.00,Meteorologica,2013-11-24 18:51:00,
2013-11-24 13:55:00,35.9,13.4,30.47,NNE,12,4.2,10.8,39,0.00,,,0.00,Meteorologica,2013-11-24 18:55:00,
2013-11-24 14:00:00,36.0,10.9,30.46,NE,37,5.7,8.1,35,0.00,,,0.00,Meteorologica,2013-11-24 19:00:00,
2013-11-24 14:05:00,36.1,10.5,30.46,NNE,29,7.3,10.5,34,0.00,,,0.00,Meteorologica,2013-11-24 19:05:00,
2013-11-24 14:10:00,36.0,7.9,30.46,NNE,18,7.4,12.3,30,0.00,,,0.00,Meteorologica,2013-11-24 19:10:00,
2013-11-24 14:15:00,35.9,9.7,30.46,North,3,6.1,13.5,33,0.00,,,0.00,Meteorologica,2013-11-24 19:15:00,
2013-11-24 14:20:00,36.1,10.5,30.45,NE,50,5.0,13.9,34,0.00,,,0.00,Meteorologica,2013-11-24 19:20:00,
2013-11-24 14:25:00,35.9,9.5,30.45,NNE,12,5.3,10.6,33,0.00,,,0.00,Meteorologica,2013-11-24 19:25:00,
2013-11-24 14:30:00,36.0,9.6,30.45,NNE,20,4.6,10.8,33,0.00,,,0.00,Meteorologica,2013-11-24 19:30:00,
2013-11-24 14:35:00,35.8,8.7,30.45,NNE,31,6.2,11.8,32,0.00,,,0.00,Meteorologica,2013-11-24 19:35:00,
2013-11-24 14:41:00,35.8,8.6,30.45,NNE,27,7.4,12.7,32,0.00,,,0.00,Meteorologica,2013-11-24 19:41:00,
2013-11-24 14:46:00,35.9,10.1,30.45,NNE,13,6.4,14.2,33,0.00,,,0.00,Meteorologica,2013-11-24 19:46:00,
2013-11-24 14:51:00,36.1,9.7,30.45,ENE,59,4.9,12.0,33,0.00,,,0.00,Meteorologica,2013-11-24 19:51:00,
2013-11-24 14:56:00,36.1,8.9,30.45,NNE,32,3.8,12.0,32,0.00,,,0.00,Meteorologica,2013-11-24 19:56:00,
2013-11-24 15:00:00,36.2,8.9,30.45,NNE,27,4.5,9.9,32,0.00,,,0.00,Meteorologica,2013-11-24 20:00:00,
2013-11-24 15:06:00,36.3,9.6,30.45,NNE,24,4.4,8.8,32,0.00,,,0.00,Meteorologica,2013-11-24 20:06:00,
2013-11-24 15:11:00,36.4,9.3,30.45,NNE,18,4.9,12.0,32,0.00,,,0.00,Meteorologica,2013-11-24 20:11:00,
2013-11-24 15:16:00,36.1,8.9,30.45,NNE,23,5.3,8.6,32,0.00,,,0.00,Meteorologica,2013-11-24 20:16:00,
2013-11-24 15:21:00,36.0,8.9,30.45,North,6,6.1,9.2,32,0.00,,,0.00,Meteorologica,2013-11-24 20:21:00,
2013-11-24 15:25:00,36.0,8.8,30.45,NE,50,5.1,9.1,32,0.00,,,0.00,Meteorologica,2013-11-24 20:25:00,
2013-11-24 15:30:00,36.0,9.5,30.45,North,359,4.2,12.2,33,0.00,,,0.00,Meteorologica,2013-11-24 20:30:00,
2013-11-24 15:35:00,36.1,8.8,30.45,North,7,4.6,9.6,31,0.00,,,0.00,Meteorologica,2013-11-24 20:35:00,
2013-11-24 15:40:00,36.1,9.0,30.45,NNE,31,3.0,10.6,32,0.00,,,0.00,Meteorologica,2013-11-24 20:40:00,
2013-11-24 15:45:00,36.0,9.4,30.45,NE,35,3.3,14.4,32,0.00,,,0.00,Meteorologica,2013-11-24 20:45:00,
2013-11-24 16:00:00,35.9,9.9,30.45,East,87,3.8,6.6,33,0.00,,,0.00,Meteorologica,2013-11-24 21:00:00,
2013-11-24 16:05:00,36.0,9.8,30.45,North,0,0.9,7.6,33,0.00,,,0.00,Meteorologica,2013-11-24 21:05:00,
2013-11-24 16:10:00,36.1,9.9,30.45,NE,56,3.9,8.9,33,0.00,,,0.00,Meteorologica,2013-11-24 21:10:00,
2013-11-24 16:15:00,36.0,9.2,30.45,NE,39,3.3,8.3,32,0.00,,,0.00,Meteorologica,2013-11-24 21:15:00,
2013-11-24 16:20:00,35.9,9.3,30.46,NNE,14,3.9,7.1,32,0.00,,,0.00,Meteorologica,2013-11-24 21:20:00,
2013-11-24 16:25:00,36.0,9.1,30.46,NNE,24,3.9,9.6,32,0.00,,,0.00,Meteorologica,2013-11-24 21:25:00,
2013-11-24 16:30:00,35.9,9.7,30.47,NNE,29,0.6,10.9,33,0.00,,,0.00,Meteorologica,2013-11-24 21:30:00,
2013-11-24 16:35:00,35.6,9.7,30.47,NE,39,3.9,6.4,33,0.00,,,0.00,Meteorologica,2013-11-24 21:35:00,
2013-11-24 16:40:00,35.7,9.3,30.47,NNE,19,4.0,8.0,33,0.00,,,0.00,Meteorologica,2013-11-24 21:40:00,
2013-11-24 16:45:00,35.6,8.8,30.47,NE,43,0.5,8.2,32,0.00,,,0.00,Meteorologica,2013-11-24 21:45:00,
2013-11-24 16:50:00,35.4,9.0,30.47,NE,45,2.0,7.9,33,0.00,,,0.00,Meteorologica,2013-11-24 21:50:00,
2013-11-24 16:55:00,35.4,9.6,30.47,NNE,12,0.9,7.1,34,0.00,,,0.00,Meteorologica,2013-11-24 21:55:00,
2013-11-24 17:00:00,35.4,8.9,30.47,NNE,33,1.9,8.4,33,0.00,,,0.00,Meteorologica,2013-11-24 22:00:00,
2013-11-24 17:05:00,35.3,9.1,30.47,NNE,32,0.0,6.9,33,0.00,,,0.00,Meteorologica,2013-11-24 22:05:00,
2013-11-24 17:10:00,35.0,8.6,30.47,NE,53,2.8,7.1,33,0.00,,,0.00,Meteorologica,2013-11-24 22:10:00,
2013-11-24 17:15:00,34.9,9.2,30.47,NNE,19,3.4,5.5,33,0.00,,,0.00,Meteorologica,2013-11-24 22:15:00,
2013-11-24 17:20:00,34.7,9.4,30.46,NNE,30,1.2,7.1,34,0.00,,,0.00,Meteorologica,2013-11-24 22:20:00,
2013-11-24 17:25:00,34.5,8.6,30.46,NE,53,3.1,6.0,33,0.00,,,0.00,Meteorologica,2013-11-24 22:25:00,
2013-11-24 18:00:00,33.9,9.5,30.46,NNE,15,0.0,6.1,35,0.00,,,0.00,Meteorologica,2013-11-24 23:00:00,
2013-11-24 18:05:00,33.8,9.7,30.47,NNE,15,0.0,0.0,36,0.00,,,0.00,Meteorologica,2013-11-24 23:05:00,
2013-11-24 18:10:00,33.6,9.4,30.47,NE,34,3.1,6.8,36,0.00,,,0.00,Meteorologica,2013-11-24 23:10:00,
2013-11-24 18:15:00,33.6,9.7,30.47,NNE,21,0.0,5.8,36,0.00,,,0.00,Meteorologica,2013-11-24 23:15:00,
2013-11-24 18:20:00,33.3,9.3,30.47,NNE,21,0.1,4.8,36,0.00,,,0.00,Meteorologica,2013-11-24 23:20:00,
2013-11-24 18:25:00,33.3,9.8,30.47,NNE,21,0.0,6.1,37,0.00,,,0.00,Meteorologica,2013-11-24 23:25:00,
2013-11-24 18:30:00,33.1,10.3,30.47,NNE,21,0.7,0.0,38,0.00,,,0.00,Meteorologica,2013-11-24 23:30:00,
2013-11-24 18:35:00,32.9,10.0,30.47,ENE,67,0.0,6.3,38,0.00,,,0.00,Meteorologica,2013-11-24 23:35:00,
2013-11-24 18:40:00,32.7,9.3,30.47,NE,35,2.3,5.6,37,0.00,,,0.00,Meteorologica,2013-11-24 23:40:00,
2013-11-24 18:45:00,32.8,9.6,30.47,NNE,14,1.7,6.6,37,0.00,,,0.00,Meteorologica,2013-11-24 23:45:00,
2013-11-24 18:50:00,32.8,10.4,30.47,NNE,31,0.1,5.1,39,0.00,,,0.00,Meteorologica,2013-11-24 23:50:00,
2013-11-24 18:55:00,32.6,10.4,30.47,NNE,23,0.3,6.5,39,0.00,,,0.00,Meteorologica,2013-11-24 23:55:00,
2013-11-24 19:00:00,32.5,9.9,30.47,NE,36,3.5,5.1,38,0.00,,,0.00,Meteorologica,2013-11-25 00:00:00,
2013-11-24 19:05:00,32.5,10.0,30.47,NNE,21,0.0,5.3,38,0.00,,,0.00,Meteorologica,2013-11-25 00:05:00,
2013-11-24 19:10:00,32.4,10.5,30.47,NNE,21,0.0,2.2,39,0.00,,,0.00,Meteorologica,2013-11-25 00:10:00,
2013-11-24 19:15:00,32.2,10.3,30.47,NNE,21,0.0,0.0,39,0.00,,,0.00,Meteorologica,2013-11-25 00:15:00,
2013-11-24 19:20:00,32.0,10.9,30.47,NNE,21,0.0,0.0,41,0.00,,,0.00,Meteorologica,2013-11-25 00:20:00,
2013-11-24 19:25:00,32.1,10.0,30.47,ENE,57,0.3,0.0,39,0.00,,,0.00,Meteorologica,2013-11-25 00:25:00,
2013-11-24 19:30:00,31.9,10.7,30.47,ENE,57,0.0,8.3,41,0.00,,,0.00,Meteorologica,2013-11-25 00:30:00,
2013-11-24 19:36:00,31.8,10.3,30.47,ENE,57,0.0,0.0,40,0.00,,,0.00,Meteorologica,2013-11-25 00:36:00,
2013-11-24 19:41:00,31.7,10.4,30.47,ENE,57,0.0,0.0,41,0.00,,,0.00,Meteorologica,2013-11-25 00:41:00,
2013-11-24 19:46:00,31.8,10.5,30.47,North,11,0.0,0.0,40,0.00,,,0.00,Meteorologica,2013-11-25 00:46:00,
2013-11-24 19:51:00,31.7,11.0,30.47,North,11,0.0,0.0,42,0.00,,,0.00,Meteorologica,2013-11-25 00:51:00,
2013-11-24 19:56:00,31.5,11.0,30.47,North,11,0.0,0.0,42,0.00,,,0.00,Meteorologica,2013-11-25 00:56:00,
2013-11-24 20:01:00,31.3,11.4,30.47,North,11,0.0,0.0,43,0.00,,,0.00,Meteorologica,2013-11-25 01:01:00,
2013-11-24 20:06:00,31.2,11.3,30.46,North,11,0.0,0.0,43,0.00,,,0.00,Meteorologica,2013-11-25 01:06:00,
2013-11-24 20:11:00,31.0,11.2,30.46,North,11,0.0,0.0,43,0.00,,,0.00,Meteorologica,2013-11-25 01:11:00,
2013-11-24 20:16:00,30.9,11.2,30.46,North,11,0.0,0.0,43,0.00,,,0.00,Meteorologica,2013-11-25 01:16:00,
2013-11-24 20:21:00,30.9,11.1,30.46,NNE,31,1.5,0.0,43,0.00,,,0.00,Meteorologica,2013-11-25 01:21:00,
2013-11-24 20:26:00,30.9,11.2,30.46,NNE,31,0.0,0.0,43,0.00,,,0.00,Meteorologica,2013-11-25 01:26:00,
2013-11-24 20:31:00,30.9,12.0,30.46,NNE,31,0.0,0.0,45,0.00,,,0.00,Meteorologica,2013-11-25 01:31:00,
2013-11-24 20:36:00,30.8,11.3,30.46,NE,47,0.0,3.2,44,0.00,,,0.00,Meteorologica,2013-11-25 01:36:00,
2013-11-24 20:41:00,30.8,11.1,30.46,NNE,31,0.0,4.1,44,0.00,,,0.00,Meteorologica,2013-11-25 01:41:00,
2013-11-24 20:46:00,30.8,11.7,30.46,NNE,19,0.0,4.3,44,0.00,,,0.00,Meteorologica,2013-11-25 01:46:00,
2013-11-24 20:51:00,30.9,11.7,30.46,NNE,18,0.0,3.2,44,0.00,,,0.00,Meteorologica,2013-11-25 01:51:00,
2013-11-24 20:57:00,30.9,11.6,30.46,NNE,18,0.0,0.0,44,0.00,,,0.00,Meteorologica,2013-11-25 01:57:00,
2013-11-24 21:02:00,30.8,12.1,30.46,NNE,18,0.0,0.0,45,0.00,,,0.00,Meteorologica,2013-11-25 02:02:00,
2013-11-24 21:07:00,30.8,12.1,30.46,NNE,18,0.0,0.0,45,0.00,,,0.00,Meteorologica,2013-11-25 02:07:00,
2013-11-24 21:12:00,30.7,12.4,30.45,NNE,18,0.0,0.0,46,0.00,,,0.00,Meteorologica,2013-11-25 02:12:00,
2013-11-24 21:17:00,30.6,11.9,30.45,NNE,18,0.0,0.0,45,0.00,,,0.00,Meteorologica,2013-11-25 02:17:00,
2013-11-24 21:22:00,30.6,12.2,30.46,NNE,18,0.0,0.0,46,0.00,,,0.00,Meteorologica,2013-11-25 02:22:00,
2013-11-24 21:27:00,30.6,12.0,30.46,NNE,18,0.0,0.0,45,0.00,,,0.00,Meteorologica,2013-11-25 02:27:00,
2013-11-24 21:32:00,30.7,12.1,30.46,NNE,18,0.0,0.0,45,0.00,,,0.00,Meteorologica,2013-11-25 02:32:00,
2013-11-24 21:37:00,30.7,12.2,30.46,NNE,18,0.0,0.0,45,0.00,,,0.00,Meteorologica,2013-11-25 02:37:00,
2013-11-24 21:42:00,30.7,12.1,30.47,NNE,18,0.0,0.0,45,0.00,,,0.00,Meteorologica,2013-11-25 02:42:00,
2013-11-24 21:47:00,30.8,12.4,30.47,NNE,18,0.0,0.0,46,0.00,,,0.00,Meteorologica,2013-11-25 02:47:00,
2013-11-24 21:52:00,30.7,12.4,30.47,NNE,18,0.0,0.0,46,0.00,,,0.00,Meteorologica,2013-11-25 02:52:00,
2013-11-24 21:57:00,30.7,13.0,30.46,NNE,18,0.0,0.0,47,0.00,,,0.00,Meteorologica,2013-11-25 02:57:00,
2013-11-24 22:02:00,30.5,12.8,30.47,NNE,18,0.0,0.0,47,0.00,,,0.00,Meteorologica,2013-11-25 03:02:00,
2013-11-24 22:08:00,30.5,12.8,30.47,NNE,18,0.0,0.0,47,0.00,,,0.00,Meteorologica,2013-11-25 03:08:00,
2013-11-24 22:13:00,30.4,12.4,30.47,NNE,33,0.0,4.0,47,0.00,,,0.00,Meteorologica,2013-11-25 03:13:00,
2013-11-24 22:18:00,30.6,12.8,30.47,NNE,33,0.0,2.3,47,0.00,,,0.00,Meteorologica,2013-11-25 03:18:00,
2013-11-24 22:23:00,30.6,13.2,30.47,North,11,0.0,3.0,48,0.00,,,0.00,Meteorologica,2013-11-25 03:23:00,
2013-11-24 22:28:00,30.5,13.0,30.47,North,5,0.0,4.2,47,0.00,,,0.00,Meteorologica,2013-11-25 03:28:00,
2013-11-24 22:33:00,30.4,13.0,30.47,North,5,0.0,0.0,48,0.00,,,0.00,Meteorologica,2013-11-25 03:33:00,
2013-11-24 22:38:00,30.3,13.0,30.47,North,5,0.0,0.0,48,0.00,,,0.00,Meteorologica,2013-11-25 03:38:00,
2013-11-24 22:43:00,30.2,12.9,30.47,North,5,0.0,0.0,48,0.00,,,0.00,Meteorologica,2013-11-25 03:43:00,
2013-11-24 22:48:00,30.3,13.1,30.47,North,5,0.0,0.0,48,0.00,,,0.00,Meteorologica,2013-11-25 03:48:00,
2013-11-24 22:53:00,30.3,13.7,30.47,North,5,0.0,0.0,49,0.00,,,0.00,Meteorologica,2013-11-25 03:53:00,
2013-11-24 22:58:00,30.1,13.1,30.47,North,5,0.0,0.0,49,0.00,,,0.00,Meteorologica,2013-11-25 03:58:00,
2013-11-24 23:03:00,30.0,13.4,30.47,North,5,0.0,0.0,49,0.00,,,0.00,Meteorologica,2013-11-25 04:03:00,
2013-11-24 23:09:00,29.9,13.0,30.47,North,5,0.0,0.0,49,0.00,,,0.00,Meteorologica,2013-11-25 04:09:00,
2013-11-24 23:14:00,29.9,13.4,30.47,North,5,0.0,0.0,49,0.00,,,0.00,Meteorologica,2013-11-25 04:14:00,
2013-11-24 23:19:00,29.9,13.5,30.47,North,5,0.0,0.0,50,0.00,,,0.00,Meteorologica,2013-11-25 04:19:00,
2013-11-24 23:24:00,29.7,13.4,30.47,North,5,0.0,0.0,50,0.00,,,0.00,Meteorologica,2013-11-25 04:24:00,
2013-11-24 23:29:00,29.7,13.3,30.47,North,5,0.0,0.0,50,0.00,,,0.00,Meteorologica,2013-11-25 04:29:00,
2013-11-24 23:34:00,29.6,13.3,30.47,North,5,0.0,0.0,50,0.00,,,0.00,Meteorologica,2013-11-25 04:34:00,
2013-11-24 23:39:00,29.5,13.2,30.47,North,5,0.0,0.0,50,0.00,,,0.00,Meteorologica,2013-11-25 04:39:00,
2013-11-24 23:44:00,29.6,13.3,30.46,North,5,0.0,0.0,50,0.00,,,0.00,Meteorologica,2013-11-25 04:44:00,
2013-11-24 23:49:00,29.5,13.6,30.46,North,5,0.0,0.0,51,0.00,,,0.00,Meteorologica,2013-11-25 04:49:00,
2013-11-24 23:54:00,29.4,13.5,30.46,North,5,0.0,0.0,51,0.00,,,0.00,Meteorologica,2013-11-25 04:54:00,